This is the latest recevied weather packets stored in our database for station/object WL7CLI. If no packets are shown the sender has not sent any weather packets the latest 10 day(s).
| Time | Temp. | Humidity | Pressure | Rain* | Wind** | Luminosity | Snow |
|---|---|---|---|---|---|---|---|
| 1777820171 | 16.67° C | 46% | 1008.9 hPa | 0 mm | - | - | - |
| 1777819618 | 16.67° C | 46% | 1008.8 hPa | 0 mm | - | - | - |
| 1777818974 | 16.11° C | 47% | 1009 hPa | 0 mm | - | - | - |
| 1777818504 | 15.56° C | 48% | 1009.3 hPa | 0 mm | - | - | - |
| 1777818417 | 15.56° C | 50% | 1009.2 hPa | 0 mm | - | - | - |
| 1777817772 | 15° C | 49% | 1009.2 hPa | 0 mm | - | - | - |
| 1777817217 | 14.44° C | 50% | 1009.4 hPa | 0 mm | - | - | - |
| 1777816704 | 13.89° C | 50% | 1009.4 hPa | 0 mm | - | - | - |
| 1777816572 | 13.89° C | 51% | 1009.3 hPa | 0 mm | - | - | - |
| 1777816018 | 13.33° C | 51% | 1009.3 hPa | 0 mm | - | - | - |
| 1777815372 | 13.33° C | 50% | 1009.2 hPa | 0 mm | - | - | - |
| 1777814904 | 13.33° C | 50% | 1009.3 hPa | 0 mm | - | - | - |
| 1777814817 | 13.33° C | 50% | 1009.3 hPa | 0 mm | - | - | - |
| 1777814172 | 13.33° C | 49% | 1009.4 hPa | 0 mm | - | - | - |
| 1777813619 | 13.33° C | 49% | 1009.5 hPa | 0 mm | - | - | - |
| 1777813104 | 13.33° C | 49% | 1009.2 hPa | 0 mm | - | - | - |
| 1777812972 | 13.33° C | 49% | 1009.4 hPa | 0 mm | - | - | - |
| 1777812418 | 12.78° C | 50% | 1009.3 hPa | 0 mm | - | - | - |
| 1777811771 | 12.22° C | 52% | 1009.6 hPa | 0 mm | - | - | - |
| 1777811304 | 12.22° C | 52% | 1009.7 hPa | 0 mm | - | - | - |
| 1777811218 | 12.22° C | 52% | 1009.6 hPa | 0 mm | - | - | - |
| 1777810574 | 11.67° C | 53% | 1009.9 hPa | 0 mm | - | - | - |
| 1777810017 | 11.11° C | 54% | 1010.1 hPa | 0 mm | - | - | - |
| 1777809504 | 11.11° C | 55% | 1010.2 hPa | 0 mm | - | - | - |
| 1777809372 | 11.11° C | 55% | 1010.2 hPa | 0 mm | - | - | - |
* Rain latest hour (hover to see other rain measurements)
** Current wind speed in m/s (hover to see current wind gust speed)